Starlink 32726

operational
NORAD ID: 62446 Int'l Des: 2024-251 Owner: SPXS Country: US Constellation: starlink
LEOCIRCULAR

关于 Starlink 32726

正在加载描述...

实时位置

正在加载3D地球...

即将过境

高度历史

Altitude vs Time

uPlot chart will show altitude changes over time

两行轨道根数

1 62446U 24251Q 25305.43489579 .00024809 00000-0 84661-3 0 9991
2 62446 53.1569 210.9190 0001052 99.4039 260.7081 15.30212944 48004
Epoch: Nov 1, 2025 • Age: 16 hours

当前状态

高度 477.1 km
速度 7.63 km/s
星下点 35.13°N, 85.93°W
发射日期 Dec 29, 2024
运行时间 0.8 years
类型 internet

技术详情

分类 Payload
质量 730.00 kg
干质量 700.00 kg
总质量 730.00 kg
长度 0.30 m
直径 4.10 m
跨度 29.00 m
形状 Box + pan
制造商 SPXS
平台类型 Starlink V2M
阶段状态 In Orbit
所有者/国家 SPXS/US

大型星座

Loading constellations...